Content
SEND FEEDBACK

Daily
Averages
Monthly
Summary
United States of America

ROCK SPRINGS, WYOMING


Home > North America > United States > Wyoming
Elevation: 6752 feet     Latitude: 41 35N     Longitude: 109 03W

WEATHER
 
SELECT A DAY
Number of Records: 67,829;   Date Range: 1/3/10 - 7/27/14
 
SHARE

PRINT THIS DATA

[ ← Previous Day ]
WEATHER ALMANAC - JANUARY 31, 2013
[ Next Day → ]
[ °C ]   °F
Weather ElementAverageHighLow
Temperature27.4 °F34 °F (1:54 pm) (10:54 am)
Dewpoint19.2 °F23 °F (11:54 pm) (7:00 pm)
Humidity70.3 %78 % (1:54 am)59 % (1:54 pm)
Barometer30.20 in30.29 in (7:54 pm)30.08 in (12:54 am)
Wind Speed25 mph31.1 mph (9:54 am)
Wind Gust38 mph (11:54 am)
Weather ElementAverage
Visibility10 mi
Wind DirectionWSW (247 °)

Weather ElementTotal
Precipitation---
Heating Degree Days48 (Base 65)
Averaged from 27 records on January 31, 2013
WEATHER CONDITIONS BREAKOUT
WIND DIRECTION BREAKOUT
WEATHER BY HOUR - JANUARY 31, 2013
[ °C ]   °F
Local TimeTemperatureDewpointHumidityBarometerVisibilityWind DirectionWind SpeedGust SpeedPrecipitationEventsConditions
12:54 AM28.0 °F21.0 °F75 %30.08 in10.0 miWest (270°)29.9 mph36.8 mphScattered Clouds
1:54 AM27.0 °F21.0 °F78 %30.08 in10.0 miWest (260°)29.9 mph36.8 mphPartly Cloudy
2:54 AM27.0 °F19.9 °F75 %30.12 in10.0 miWSW (250°)25.3 mph32.2 mphScattered Clouds
3:54 AM26.1 °F19.9 °F78 %30.13 in10.0 miWSW (250°)23.0 mph28.8 mphClear
4:54 AM27.0 °F19.9 °F75 %30.17 in10.0 miWSW (250°)25.3 mph36.8 mphOvercast
5:35 AM26.6 °F19.4 °F74 %30.10 in10.0 miWSW (250°)24.2 mphOvercast
5:54 AM27.0 °F19.9 °F75 %30.20 in10.0 miWSW (250°)23.0 mph29.9 mphOvercast
6:23 AM26.6 °F19.4 °F74 %30.12 in10.0 miWSW (250°)25.3 mph32.2 mphMostly Cloudy
6:54 AM26.1 °F19.9 °F78 %30.22 in10.0 miWSW (250°)24.2 mph33.4 mphMostly Cloudy
7:54 AM26.1 °F19.0 °F75 %30.24 in10.0 miWSW (250°)18.4 mphClear
8:54 AM28.0 °F19.9 °F72 %30.25 in10.0 miWSW (250°)23.0 mphPartly Cloudy
9:54 AM30.9 °F21.0 °F67 %30.26 in10.0 miWest (270°)31.1 mph36.8 mphClear
10:54 AM0.0 °F0.0 °F30.20 inNorth
11:54 AM0.0 °F0.0 °F30.19 in10.0 miWSW (250°)29.9 mph38.0 mphOvercast
12:02 PM33.8 °F21.2 °F60 %30.19 in10.0 miWest (260°)27.6 mph35.7 mphOvercast
12:18 PM33.8 °F21.2 °F60 %30.18 in10.0 miWest (260°)27.6 mph36.8 mphOvercast
12:54 PM33.1 °F21.0 °F61 %30.23 in10.0 miWest (260°)27.6 mph35.7 mphOvercast
1:18 PM33.8 °F21.2 °F60 %30.17 in10.0 miWest (260°)27.6 mph35.7 mphOvercast
1:54 PM34.0 °F21.0 °F59 %30.22 in10.0 miWest (260°)27.6 mphOvercast
2:54 PM33.1 °F19.9 °F59 %30.23 in10.0 miWest (270°)28.8 mph36.8 mphOvercast
3:54 PM33.1 °F21.0 °F61 %30.24 in10.0 miWest (270°)24.2 mph31.1 mphScattered Clouds
5:54 PM30.0 °F21.9 °F72 %30.26 in10.0 miWest (260°)24.2 mphOvercast
6:54 PM30.0 °F21.9 °F72 %30.28 in10.0 miWest (260°)21.9 mphOvercast
7:54 PM28.9 °F21.9 °F75 %30.29 in10.0 miWSW (250°)17.3 mphOvercast
8:54 PM28.9 °F21.9 °F75 %30.27 in10.0 miWSW (250°)20.7 mphOvercast
9:54 PM30.0 °F21.9 °F72 %30.24 in10.0 miWSW (250°)19.6 mphOvercast
11:54 PM30.0 °F23.0 °F75 %30.18 in10.0 miWest (260°)23.0 mphOvercast
Hourly data recorded from KRKS, located miles away from Rock Springs, Wyoming







STORIES FROM OUR PARTNERS